World > North America > United States > Illinois

Orel, Illinois Regional Weather

Lat: 38.35N, Lon: 88.59W
Wx Zone: ILZ076Web Search
Orel Weather Warning NWS WEATHER ALERT FOR THE OREL, IL AREA - WIND ADVISORY Issued: 1241 PM CDT Sun May 9 2021 Orel Weather Warning  

Pass this page to a friend. Tell them to point their camera at the QR Code near the bottom of this page.

Feedback


°F Click to change Orel hourly weather to Imperial units.Click to change Orel hourly weather to Metric units. °C
Orel Weather Map
UTC Time: 5/9/2021, 23:45
Your Time:

Orel, IL Regional Weather

Expires:202105100000;;863100
ASUS43 KLOT 092309
RWRIL 

ILLINOIS REGIONAL WEATHER ROUNDUP
NATIONAL WEATHER SERVICE CHICAGO/ROMEOVILLE IL
600 PM CDT SUN MAY 09 2021

NOTE: "FAIR" INDICATES FEW OR NO CLOUDS BELOW 12,000 FEET WITH NO
SIGNIFICANT WEATHER AND/OR OBSTRUCTIONS TO VISIBILITY.

* THESE STATIONS ARE NOT UNDER NWS QUALITY CONTROL. THEY ALSO MAY NOT
  REPORT WEATHER SUCH AS PRECIPITATION OR FOG.


ILZ064>066-069>071-074>076-080>082-084>086-088>090-092>094-100000-
SOUTH-CENTRAL ILLINOIS
  
CITY           SKY/WX    TMP DP  RH WIND       PRES   REMARKS
CARBONDALE     CLOUDY    51  44  77 N14G25    29.95R                  
CAIRO*         CLOUDY    53  46  78 NE17G25   29.91R                  
EFFINGHAM*     CLOUDY    49  42  77 NW14G20   29.97R                  
MARION         CLOUDY    52  45  76 N13G21    29.94R                  
CENTRALIA*     CLOUDY    51  44  78 N14       29.94F                  
SALEM*         CLOUDY    52  45  78 N10       29.94F                  
$$


SKY/WX - Weather  TMP - Temperature  DP - Dew Point  RH - Relative Humidity
WIND - Wind Direction/Speed PRES - Barometric Pressure VSB - Visibility
WCI - Wind Chill Index E13G22 Wind - East Wind 13 mph/Gusts of 22 mph